Reflectivity
-20 -20 -20 -20 -20 -20 -20 -20 -20 -20 -20 -20 -20 -20 -20 -20 -20 -20 -20 -20 -20 -20 7 -17 3 -20 -13 -20 -20 -18 -20 -20 -20 -20 -20 16 -0 -20 -20 -20 -20 -20 13 27 -16 21 -6 9 -20
-20 -20 -20 -20 -20 -20 -20 -20 -20 -20 -20 -20 -20 -20 -20 -20 -20 -20 -20 -20 -8 5 -3 9 -16 23 -20 -20 -20 -8 -20 -20 -20 -20 -20 -14 12 -20 -20 -20 -20 10 5 -20 -20 18 -20 -20 -20
-20 -20 -20 -20 -20 -20 -20 -20 -20 -20 -20 -20 -20 -20 -20 -20 -20 -20 -20 -20 -11 17 -3 18 9 -14 -18 -20 -20 -20 -20 -20 -20 -20 1 6 10 -20 -20 -20 -20 -19 -20 -16 -20 -20 -20 -20 -20
-20 -20 -20 -20 -20 -20 -20 -20 -20 -20 -20 -20 -20 -20 -20 -20 -20 -20 -20 -20 -20 -9 -19 -20 6 -20 -20 -20 -10 -20 -20 -20 -20 -20 -20 -20 -2 -20 -20 -20 -20 -20 -20 -20 -20 -20 -20 -20 -20
-20 -20 -20 -20 -20 -20 -20 -20 -20 -20 -20 -20 -20 -20 -20 -20 -20 -20 -20 -20 -20 -8 8 -20 -1 -20 -20 -20 -20 -20 -20 -20 -20 -20 -14 -15 -17 -20 -20 -20 -20 -20 -20 -20 -17 -20 -20 -20 -20
-20 -20 -20 -20 -20 -20 -20 -20 -20 -20 -20 -20 -20 -20 -20 -20 -20 -20 -20 -20 -20 -19 -0 -12 16 6 -20 -20 -20 -20 -20 -20 -20 -3 -20 -6 -4 -20 -20 -20 -20 -20 -20 -20 -20 -20 -20 -20 -20
-20 -20 -20 -20 -20 -20 -20 -20 -20 -20 -20 -20 -20 -20 -20 -20 -20 -20 -20 -20 -20 -20 -20 4 -5 7 -20 -20 -20 -20 -20 -20 -20 -20 -6 10 9 4 -20 -20 -20 -20 -20 -20 -20 -20 -20 -20 -20
-20 -20 -20 -20 -20 -20 -20 -20 -20 -20 -20 -20 -20 -20 -20 -20 -20 -20 -20 -20 -20 -20 -20 -20 -20 -20 -20 -20 -19 -20 -20 -20 -20 -20 -20 -20 -20 -5 -19 -20 -20 -20 -20 -19 -20 -20 -20 -20 -20
-20 -20 -20 -20 -20 -20 -20 -20 -20 -20 -20 -20 -20 -20 -20 -20 -20 -20 -20 -20 -20 -20 -20 -20 -20 -20 -20 -20 3 -5 -20 -20 -20 -20 -20 -20 -20 -20 -20 -20 -20 -20 -14 -20 -20 -20 -20 -20 -20
-20 -20 -20 -20 -20 -20 -20 -20 -20 -20 -20 -20 -20 -20 -20 -20 -20 -20 -20 -20 -20 -20 -20 -20 -20 -20 -20 -20 -17 -20 -20 -20 -20 -20 -20 -20 -20 -20 -20 -20 -20 -20 -20 -20 -20 -20 -20 -20 -20
-20 -20 -20 -20 -20 -20 -20 -20 -20 -20 -20 -20 -20 -20 -20 -20 -20 -20 -20 -20 -20 -20 -20 -20 -20 -20 -20 -20 -17 -0 -18 -20 10 -18 -20 -20 -20 -20 -20 -20 -20 -20 -20 -20 -20 -20 -20 -20 -20
-20 -20 -20 -20 -20 -20 -20 -20 -20 -20 -20 -20 -20 -20 -20 -20 -20 -20 -20 -20 -20 -20 -20 -20 -20 -20 -20 -20 -20 -20 -20 -18 -13 -19 -20 -20 -20 -20 -20 -20 -20 -20 -20 -20 -20 -20 -20 -20 -20
-20 -20 -20 -20 -20 -20 -20 -20 -20 -20 -20 -20 -20 -20 -20 -20 -20 -20 -20 -20 -20 -20 -20 -20 -20 -20 -20 -20 -20 -20 -20 -20 -20 -20 -20 1 10 -13 8 -20 -20 -20 -20 -20 -20 -20 -20 -20 -20
-20 -20 -20 -20 -20 -20 -20 -20 -20 -20 -20 -20 -20 -20 -20 -20 -20 -20 -20 -20 -20 -20 -20 -20 -20 -20 -20 -20 -20 -20 -20 -20 -20 -20 -20 -20 -20 -17 22 15 -4 -10 -20 -20 -20 -20 -20 -20 -20
-20 -20 -20 -20 -20 -20 -20 -20 -20 -20 -20 -20 -20 -20 -20 -20 -20 -20 -20 -20 -20 -20 -20 -20 -20 -20 -20 -20 -20 -20 -20 -20 -20 -20 -20 -20 -20 -20 18 21 13 3 -20 -18 -20 -20 -20 -20 -20
-20 -20 -20 -20 -20 -20 -20 -20 -20 -20 -20 -20 -20 -20 -20 -20 -20 -20 -20 -20 -20 -20 -20 -20 -20 -20 -20 -20 -20 -20 -20 -20 -20 -20 -20 -20 -20 -20 -20 -20 9 21 21 -11 20 -7 -20 -20 -20
-20 -20 -20 -20 -20 -20 -20 -20 -20 -20 -20 -20 -20 -20 -20 -20 -20 -20 -20 -20 -20 -20 -20 -20 -20 -20 -20 -20 -20 -20 -20 -20 -20 -20 -20 -20 -20 -20 -20 -20 -20 24 23 24 28 -0 -20 2 -14
-20 -20 -20 -20 -20 -20 -20 -20 -20 -20 -20 -20 -20 -20 -20 -20 -20 -20 -20 -20 -20 -20 -20 -20 -20 -20 -20 -20 -20 -20 -20 -20 -20 -20 -20 -20 -20 -20 -20 -20 -20 -20 -20 4 27 7 25 11 25
-20 -20 -20 -20 -20 -20 -20 -20 -20 -20 -20 -20 -20 -20 -20 -20 -20 -20 -20 -20 -20 -20 -20 -20 -20 -20 -20 -20 -20 -20 -20 -20 -20 -20 -20 -20 -20 -20 -20 -20 -20 -20 -20 -20 -20 -20 27 27 3
-20 -20 -20 -20 -20 -20 -20 -20 -20 -20 -20 -20 -20 -20 -20 -20 -20 -20 -20 -20 -20 -20 -20 -20 -20 -20 -20 -20 -20 -20 -20 -20 -20 -20 -20 -20 -20 -20 -20 -20 -20 -20 -20 -20 -20 -20 -20 -20 15
-20 -20 -20 -20 -20 -20 -20 -20 -20 -20 -20 -20 -20 -20 -20 -20 -20 -20 -20 -20 -20 -20 -20 -20 -20 -20 -20 -20 -20 -20 -20 -20 -20 -20 -20 -20 -20 -20 -20 -20 -20 -20 -20 -20 -20 -20 -20 -20 1
-20 -20 -20 -20 -20 -20 -20 -20 -20 -20 -20 -20 -20 -20 -20 -20 -20 -20 -20 -20 -20 -20 -20 -20 -20 -20 -20 -20 -20 -20 -20 -20 -20 -20 -20 -20 -20 -20 -20 -20 -20 -20 -20 -20 -7 -20 -20 -14 -20
-20 -20 -20 -20 -20 -20 -20 -20 -20 -20 -20 -20 -20 -20 -20 -20 -20 -20 -20 -20 -20 -20 -20 -20 -20 -20 -20 -20 -20 -20 -20 -20 -20 -20 -20 -20 -20 -20 -20 -20 -20 -20 -20 -13 -20 -20 17 5 -20
-20 -20 -20 -20 -20 -20 -20 -20 -20 -20 -20 -20 -20 -20 -20 -20 -20 -20 -20 -20 -20 -20 -20 -20 -20 -20 -20 -20 -20 -20 -20 -20 -20 -20 -20 -20 -20 -20 -20 -20 -20 -20 -20 -20 -20 -13 -18 -20 -20
-20 -20 -20 -20 -20 -20 -20 -20 -20 -20 -20 -20 -20 -20 -20 -20 -20 -20 -20 -20 -20 -20 -20 -20 -20 -20 -2 -1 -20 -20 -20 -20 -20 -20 -20 -20 -20 -20 -20 -20 -20 -20 -20 -20 -20 -20 -8 -20 -1
-20 -20 -20 -20 -20 -20 -20 -20 -20 -20 -20 -20 -20 -20 -20 -20 -20 -20 -20 -20 -20 -20 -20 -20 -20 -20 -18 -14 -20 -20 -20 -20 -20 -20 -20 -20 -20 -20 -20 -20 -20 -20 -20 -20 -20 -20 -20 -2 11
-20 -20 -20 -20 -20 -20 -20 -20 -20 -20 -20 -20 -20 -20 -20 -20 -20 -20 -20 -20 -20 -20 -20 -20 -20 -20 -20 -9 15 -20 -20 -20 -20 -20 -20 -20 -20 -20 -20 -20 -13 -17 -20 -20 -20 -13 -20 -18 -4
-20 -20 -20 -20 -20 -20 -20 -20 -20 -20 -20 -20 -20 -20 -20 -20 -20 -20 -20 -20 -20 -20 -20 -20 -20 -20 -20 -20 -16 16 -2 -20 -20 -20 -17 -12 -20 -20 -20 -20 3 7 -10 -4 8 -18 -20 -3 9
-20 -20 -20 -20 -20 -20 -20 -20 -20 -20 -20 -20 -20 -20 -20 -20 -20 -20 -20 -20 -20 -20 -20 -20 -20 -20 -20 -20 -20 -2 26 1 -20 -20 -20 -20 -20 -20 -20 -20 -14 -4 -11 9 -7 -20 -20 -20 -20
-20 -20 -20 -20 -20 -20 -20 -20 -20 -20 -20 -20 -20 -20 -20 -20 -20 -20 -20 -20 -20 -20 -20 -20 -20 -20 -20 -20 -20 -20 2 10 -20 -20 -20 -20 -20 -20 -20 -20 24 -20 -20 -8 -20 -20 -20 -20 -20
Wind_Speed
10 9 1 5 6 6 3 3 1 5 4 2 2 6 6 4 4 3 5 4 7 7 6 5 10 10 10 10 11 10 10 9 8 8 7 7 11 7 5 6 5 2 4 8 13 12 12 11 12
5 5 4 3 6 3 5 3 6 3 1 2 5 4 6 3 5 5 1 7 6 6 6 7 9 10 9 9 12 11 11 10 10 9 9 9 10 11 4 4 2 4 9 12 13 14 13 11 10
8 2 4 5 3 3 3 3 3 2 5 6 4 5 4 3 3 3 2 4 6 6 9 1 8 8 7 8 11 11 11 11 9 9 8 6 10 12 6 4 3 5 8 10 14 14 14 11 8
3 5 5 4 3 3 4 1 2 2 6 5 2 7 5 4 3 3 5 5 4 6 6 7 3 4 5 6 7 10 10 11 10 8 5 4 7 10 8 5 5 8 10 10 12 14 15 12 8
2 3 4 2 2 3 3 3 5 5 4 4 3 3 4 3 7 7 6 6 5 5 5 5 6 6 5 5 6 7 8 9 9 9 9 8 6 8 9 6 6 9 9 11 12 11 14 12 10
4 4 4 2 2 4 4 5 3 6 3 4 6 3 1 3 7 5 6 6 5 6 4 5 7 5 4 5 5 5 5 6 7 8 10 9 8 8 9 8 8 9 10 11 12 11 12 12 10
3 4 4 2 5 4 2 5 4 3 5 4 4 3 3 4 3 5 5 5 5 5 4 5 4 4 2 3 3 3 4 5 5 5 5 7 7 8 9 8 9 11 11 11 11 11 10 11 10
3 3 1 2 3 1 2 3 1 6 1 8 2 3 2 2 2 3 5 4 4 4 3 3 3 3 3 1 4 4 4 5 5 6 6 4 6 6 8 8 10 11 12 12 12 12 12 10 9
4 5 2 4 3 3 2 4 5 3 3 4 3 3 5 6 2 2 4 4 2 1 1 2 2 2 2 1 3 4 7 6 7 6 7 6 4 5 6 6 9 11 12 13 13 14 14 11 9
4 4 1 1 3 3 4 4 4 4 6 3 5 3 1 2 2 3 3 4 4 4 3 2 2 3 4 3 3 3 4 4 5 5 6 4 5 5 6 7 10 10 12 13 13 13 12 9 4
2 3 2 3 5 5 3 5 5 3 5 7 3 7 8 4 7 6 5 5 6 5 3 3 3 2 2 4 3 2 2 3 3 7 6 6 5 4 5 4 4 4 8 5 8 8 5 6 5
3 3 3 2 3 3 1 5 6 5 8 8 9 7 5 8 7 6 7 7 6 7 6 5 4 5 5 3 3 4 3 3 3 4 6 5 5 5 5 5 6 6 5 6 6 5 6 7 6
2 4 4 5 3 2 3 6 5 11 9 9 9 10 11 9 9 8 9 8 8 7 8 8 6 6 5 5 4 4 5 4 4 3 4 4 5 7 6 6 7 7 6 7 7 7 7 8 8
3 4 6 3 3 2 4 4 1 7 3 5 4 7 8 9 10 6 7 8 8 8 8 8 7 7 6 6 6 5 4 6 5 5 5 5 5 6 7 5 7 8 8 8 8 8 8 8 8
3 6 6 4 2 2 2 3 5 7 6 4 6 7 8 9 8 9 8 8 9 8 9 8 8 7 6 7 6 5 5 5 5 5 7 6 5 5 7 7 6 7 8 11 9 9 8 8 8
1 2 4 1 4 1 6 7 4 2 2 6 9 9 9 11 10 9 9 8 8 7 8 8 6 7 7 7 6 5 5 5 5 5 5 7 7 7 5 6 7 7 8 8 9 9 9 9 7
3 2 2 1 2 3 2 7 7 7 13 11 8 8 8 8 7 8 9 9 9 9 8 8 8 10 10 9 7 7 8 5 5 5 5 7 8 7 6 6 6 7 8 8 9 9 10 9 9
3 4 4 3 4 3 6 12 9 10 7 9 7 3 8 10 8 10 10 10 8 8 8 8 8 9 9 6 5 4 5 6 5 7 7 8 9 9 8 7 7 7 6 8 7 9 9 9 10
2 2 4 6 3 7 6 11 19 12 6 3 1 10 9 9 8 11 14 15 15 13 13 11 11 11 7 5 3 4 9 5 6 8 11 9 9 11 10 9 9 9 10 10 11 10 11 9 6
3 2 5 8 9 6 7 17 13 5 4 8 8 6 7 11 13 14 16 13 13 13 15 15 14 12 10 6 4 6 4 6 8 8 9 13 16 15 13 13 11 12 10 11 11 11 7 7 6
3 1 2 1 9 3 8 7 1 2 4 9 6 4 9 11 14 15 15 15 14 14 14 15 16 16 14 14 9 6 2 2 3 4 5 9 11 12 11 14 11 12 11 11 12 12 13 9 7
0 2 3 2 6 3 5 6 6 5 3 5 5 7 7 9 13 14 16 15 17 17 16 15 18 16 14 14 10 11 10 11 9 9 8 8 8 13 14 15 11 13 11 13 12 11 12 12 10
6 2 1 2 1 5 3 4 8 4 3 6 8 8 8 9 12 16 16 16 17 15 15 14 17 15 14 13 11 9 10 9 7 6 8 10 12 13 14 13 14 13 11 12 13 13 12 10 10
4 3 4 2 1 3 4 5 7 3 3 3 4 7 8 10 12 12 14 14 15 15 15 16 16 16 17 13 12 11 12 11 8 7 7 8 8 10 14 15 15 15 12 13 11 14 14 13 11
8 5 3 6 1 5 5 3 10 5 5 3 5 7 8 8 9 11 14 15 16 18 18 16 17 17 15 16 9 8 11 12 13 11 8 10 9 9 12 13 13 12 12 12 11 10 12 13 12
2 2 6 4 3 5 5 6 9 7 6 6 7 7 8 6 6 8 11 13 14 16 17 17 17 16 15 14 15 11 10 8 9 11 10 9 10 11 13 13 14 15 14 10 10 9 10 11 11
2 2 2 3 1 1 4 8 7 5 3 5 9 6 6 7 7 8 10 9 11 12 14 16 16 17 14 14 12 14 11 9 9 10 9 9 11 11 13 15 15 14 14 12 11 9 8 9 11
1 4 2 1 3 5 6 6 6 3 8 7 7 8 8 8 7 8 9 9 9 11 12 12 13 14 14 14 12 12 14 12 8 9 10 10 11 12 13 13 15 14 13 12 11 10 8 9 9
4 2 3 3 4 4 4 8 7 11 8 7 7 8 8 8 7 8 7 7 8 9 11 12 12 13 14 15 14 13 13 14 12 9 8 11 11 11 11 14 14 13 11 12 11 11 9 12 10
6 6 5 5 3 2 3 10 4 6 6 5 9 9 7 8 7 7 6 7 9 9 9 11 12 13 11 14 14 14 13 13 10 9 10 10 11 10 12 12 11 11 10 10 12 11 11 12 12
Wind_Direction
324 310 287 35 62 65 269 286 97 35 43 339 329 69 116 47 34 134 209 359 342 328 303 205 171 167 169 165 165 157 153 149 152 151 145 151 131 121 125 134 144 155 182 125 119 119 108 112 115
319 316 43 75 86 79 280 8 86 33 239 354 31 23 50 77 42 92 260 334 345 345 0 175 169 165 167 168 165 164 161 162 164 167 181 186 146 124 144 140 132 61 130 128 125 116 112 117 122
323 262 83 99 116 164 146 32 119 64 19 27 25 67 70 350 18 98 229 11 337 15 27 78 166 164 161 168 167 170 170 169 171 184 220 159 152 137 159 156 96 115 118 135 130 126 123 124 127
337 8 23 90 190 7 93 99 44 82 17 31 54 73 64 307 97 139 109 56 11 22 24 34 80 147 166 169 172 176 181 177 180 189 194 180 171 149 159 161 132 132 134 133 136 140 128 134 138
22 65 62 83 231 106 96 69 43 19 116 13 39 49 83 44 107 95 100 84 67 30 27 32 56 146 160 171 170 180 184 190 188 190 184 187 181 163 160 164 148 151 149 154 147 143 135 148 151
23 95 72 208 204 134 48 21 40 21 9 356 46 59 102 80 65 34 103 92 91 71 45 42 34 42 139 164 164 170 186 199 213 217 199 185 191 173 171 172 158 157 158 157 156 150 152 161 165
99 85 196 223 139 76 47 334 54 21 26 360 323 72 116 40 54 29 23 111 99 82 68 57 55 40 101 133 169 191 206 220 227 246 250 200 191 189 180 180 168 167 166 165 163 156 160 174 177
90 94 277 285 201 116 339 35 86 52 353 310 42 49 174 226 79 357 326 52 68 93 74 66 68 68 45 147 188 197 229 238 236 235 241 219 204 204 199 189 183 177 174 173 166 166 166 185 184
27 59 347 358 57 156 40 70 12 317 339 337 314 111 173 171 177 2 351 340 328 332 74 76 18 4 26 151 207 223 228 223 228 230 228 221 211 210 203 202 198 187 176 177 179 174 174 177 179
77 96 122 39 44 68 40 44 12 20 335 308 317 340 331 221 173 202 244 288 314 296 280 282 51 7 357 341 338 275 231 213 212 206 207 205 207 203 203 198 203 200 182 181 183 181 177 168 170
334 120 180 42 101 67 15 359 344 345 282 227 266 313 317 3 333 321 291 266 252 264 274 289 285 291 336 326 331 312 312 275 216 205 202 200 206 212 207 194 193 187 190 192 187 181 181 180 179
54 99 81 105 96 81 358 320 317 262 238 283 283 284 301 324 309 289 282 280 285 290 288 302 319 308 283 259 275 280 298 302 291 229 208 191 202 208 211 201 187 183 184 186 190 189 184 189 197
40 357 21 346 334 233 223 235 234 257 259 265 277 298 295 297 293 289 276 273 266 265 264 264 267 265 267 270 265 266 270 277 261 259 255 213 209 216 208 197 189 187 180 186 190 194 197 202 207
300 329 289 274 263 303 279 267 82 269 265 222 259 268 277 276 269 270 275 268 267 260 260 255 259 261 266 256 253 254 257 261 267 271 241 243 224 216 215 201 197 191 187 192 193 195 200 209 214
343 341 322 237 226 187 15 330 216 246 275 232 297 289 285 277 282 268 260 262 255 254 247 237 234 233 234 247 261 257 250 260 258 255 268 249 229 227 215 211 197 203 196 197 197 201 202 207 217
325 55 4 287 127 209 75 264 327 202 173 281 270 264 263 266 261 267 272 267 261 251 245 249 244 238 243 238 237 240 250 246 247 250 243 252 248 218 218 212 209 203 201 203 204 199 204 210 210
341 246 207 63 252 153 144 267 269 291 305 301 292 285 286 296 321 332 336 335 337 320 295 260 236 225 228 233 231 230 237 236 242 242 243 243 244 243 209 218 215 209 201 206 214 201 202 210 214
333 355 344 327 326 332 275 266 284 271 294 284 327 25 23 11 1 348 350 353 345 340 333 328 314 295 276 249 243 246 235 237 232 243 241 237 243 237 230 228 216 202 208 211 210 215 210 208 221
15 355 295 272 348 358 276 304 280 287 266 287 174 31 9 352 329 342 347 341 335 329 320 312 305 297 289 281 228 233 240 232 240 239 244 246 240 236 229 229 220 216 214 208 209 210 217 219 211
23 325 292 289 5 346 308 290 289 281 165 118 59 18 356 342 346 340 330 322 316 311 307 305 297 290 279 259 231 223 201 220 230 232 237 239 245 242 238 231 223 219 218 218 212 206 212 213 184
334 302 8 265 330 268 331 306 126 182 79 55 49 17 6 351 333 329 325 324 316 310 306 301 293 283 276 271 259 243 245 266 236 232 244 234 237 243 242 246 226 223 214 213 214 209 210 213 200
29 19 7 358 49 285 54 273 287 205 78 49 4 12 338 329 335 327 324 321 321 318 314 307 305 278 268 262 252 228 233 240 235 230 238 239 232 238 239 240 246 229 224 222 212 209 214 219 207
209 298 347 144 57 55 319 70 273 187 323 341 355 337 325 326 337 327 323 320 317 318 319 321 317 312 275 256 245 235 237 243 238 224 226 233 243 244 243 237 238 237 231 224 219 217 217 219 220
332 32 26 73 142 24 250 147 276 229 211 292 299 322 312 327 329 322 319 323 325 330 331 330 326 323 331 270 241 221 227 236 237 228 231 238 242 248 242 237 231 234 232 221 215 221 219 223 227
50 60 333 356 288 219 326 36 248 185 198 185 275 291 298 312 324 328 332 333 334 337 331 329 331 326 328 333 276 250 238 238 242 237 235 238 242 244 246 238 234 231 228 224 216 216 219 214 219
70 119 146 224 322 277 359 243 263 178 175 185 231 253 268 321 325 322 326 328 332 334 331 326 329 328 333 340 329 287 254 249 244 238 232 237 242 246 249 245 235 231 227 211 208 207 219 216 213
255 306 251 116 158 320 237 277 290 184 203 227 255 252 321 306 312 313 310 313 318 320 328 328 327 329 334 335 327 325 293 243 245 243 235 236 242 248 249 245 233 228 223 216 207 214 214 222 221
175 143 159 145 317 298 285 266 235 231 248 271 312 315 286 281 290 289 293 295 301 308 313 323 328 331 329 329 327 317 314 278 231 231 233 232 240 241 253 258 235 227 220 212 207 216 213 215 219
162 223 219 179 156 187 297 268 217 196 211 245 295 285 277 281 272 272 281 296 298 305 318 319 320 333 335 331 325 321 318 316 268 235 238 243 249 247 249 255 246 235 217 213 208 211 210 219 220
174 199 175 124 251 214 162 274 246 198 213 228 265 281 270 268 273 277 294 304 298 312 321 316 329 329 326 335 325 319 319 315 327 263 237 231 232 238 244 250 259 217 214 208 205 205 209 216 216